COSMOS 2257

Satellite information

Favourite Embed

Satellite Type and Status

PAYLOADIN ORBIT

Key statistics

Satellite COSMOS 2257 at a glance.

Uptime

11764

Days in orbit

Revolutions

≈ 12.6

Per day

Orbit

LEO

Low Earth Orbit

Inclination

82.6

Latest

Satellite identification and parameters

Extended collection of information and parameters for COSMOS 2257.

Object identification

Identified? True

Debris? False

Object name: COSMOS 2257

International designator: 1993-038F

Object number (NORAD): 22692

Object ID (CCSDS): 22692

Country: COMMONWEALTH OF INDEPENDENT STATES (CIS)

Current information (Y/N): Y

RCS size: MEDIUM

Orbital parameters

Period: 114.082 minutes

Inclination: 82.5752 deg

SMA: 7791.799 km

Apoapsis: 1419.452 km

Periapsis: 1407.876 km

RAAN: 59.3852 deg

Eccentricy: 0.00074288

Argument of periapsis: 275.0711 deg

Mean anomaly: 84.9532 deg

Mean motion: 12.62252226 rev/day

Mean motion (dot): 0.00000024 rev/day2

B* drag term: 0.00007613702 1/REarth

Two-line elements (TLE)

Creation date: Sept. 7, 2025, 3:09 a.m.

Reference frame: TEME

Reference center: EARTH

Epoch: Sept. 6, 2025, 9:06 p.m. UTC

TLE line 0: 0 COSMOS 2257

TLE line 1: 1 22692U 93038F 25249.87952131 .00000024 00000-0 76137-4 0 9996

TLE line 2: 2 22692 82.5752 59.3852 0007429 275.0711 84.9532 12.62252226484040

Live tracking on map

Real-time ground track for satellite COSMOS 2257.

In-orbit conjunctions

There are no conjunctions computed for COSMOS 2257, at the moment. Check back to stay up to date, as we update our databases every day.

Go to all conjunctions

Associated space launch

Second generation store-dump military communications satellites

COSMOS 2257 was lifted into orbit during the mission ‘Tsiklon-3 | Strela-3 95 to 100’, on board a Tsiklon-3 space rocket.

The launch took place on June 24, 1993, 4:12 a.m. from 32/1.

For more information about the launch, click the button.

Launch to space Tsiklon-3 | Strela-3 95 to 100
Tsiklon-3 | Strela-3 95 to 100

Agency: N/A

Status: Launch Successful

Launch date: June 24, 1993, 4:12 a.m. UTC

Rocket: Tsiklon-3

Launch pad: 32/1

Location: Plesetsk Cosmodrome, Russian Federation

...

Latest news about this satellite

There are no fresh news available about this satellite. Check back as we update our databases every day.


Newsletter sign-up

Weekly statistics, charts and insights to help you stay on top of the space industry.